UTOFI Weather Reports


time (UTC)temp
C
wind
direction
speed
KPH
gust
KPH
rain 1hr
cm
rain 24hr
cm
rain mn
cm
humidity
%
barometer
mb
20260902060440 15 184 11.3 12.9 0.00 0.13 0.00 97 1008.2
20260902054439 15 178 8.0 9.7 0.00 0.13 0.00 97 1008.0
20260902052439 15 194 8.0 9.7 0.00 0.13 0.00 98 1008.1
20260902050439 14 185 6.4 9.7 0.00 0.13 0.00 98 1008.2
20260902044437 14 202 6.4 6.4 0.00 0.13 0.00 98 1008.1
20260902040440 14 239 8.0 11.3 0.00 0.13 0.00 98 1008.1
20260902034439 13 239 8.0 8.0 0.00 0.13 0.00 97 1008.1
20260902032440 13 264 6.4 8.0 0.00 0.13 0.00 96 1008.2
20260902030439 13 269 8.0 8.0 0.00 0.13 0.00 95 1008.1
20260902024441 13 274 6.4 6.4 0.00 0.13 0.00 95 1008.2
20260902022439 13 293 6.4 6.4 0.00 0.13 0.00 96 1008.3
20260902020438 12 312 4.8 4.8 0.00 0.13 0.00 96 1008.2
20260902014440 13 319 6.4 6.4 0.00 0.13 0.00 96 1008.2
20260902012441 13 360 3.2 4.8 0.00 0.13 0.00 96 1008.3
20260902010438 13 1 3.2 4.8 0.00 0.13 0.00 96 1008.2
20260902004440 13 339 4.8 6.4 0.00 0.13 0.00 94 1008.3
20260902002440 13 312 6.4 6.4 0.00 0.13 0.00 94 1008.3
20260902000439 13 310 6.4 6.4 0.00 0.13 0.00 94 1008.3
20260901234439 13 304 4.8 4.8 0.00 0.13 0.00 92 1008.3
20260901232438 13 301 4.8 6.4 0.00 0.13 0.00 92 1008.2
20260901230439 13 323 4.8 4.8 0.00 0.13 0.00 92 1008.2
20260901224439 13 331 6.4 8.0 0.00 0.13 0.00 91 1008.2
20260901222439 14 348 6.4 9.7 0.00 0.13 0.00 89 1008.3
20260901220438 14 338 8.0 11.3 0.00 0.13 0.00 86 1008.4
20260901212439 15 334 8.0 11.3 0.00 0.13 0.00 95 1008.4
20260901210437 15 328 8.0 11.3 0.00 0.13 0.00 95 1008.3
20260901204437 15 324 8.0 12.9 0.00 0.13 0.13 95 1008.5
20260901202438 15 321 9.7 11.3 0.00 0.13 0.13 95 1008.4
20260901194435 15 298 6.4 8.0 0.00 0.13 0.13 96 1008.4
20260901192436 15 301 8.0 11.3 0.00 0.13 0.13 96 1008.3
20260901190437 15 305 8.0 9.7 0.00 0.13 0.13 95 1008.3
20260901184437 16 265 9.7 11.3 0.00 0.13 0.13 95 1008.3
20260901182437 16 263 9.7 11.3 0.00 0.13 0.13 96 1008.3
20260901180436 16 249 9.7 11.3 0.00 0.13 0.13 95 1008.4
20260901174436 16 238 9.7 9.7 0.00 0.13 0.13 93 1008.2
20260901172438 16 242 9.7 11.3 0.00 0.13 0.13 92 1008.1
20260901170438 16 224 8.0 11.3 0.00 0.13 0.13 89 1008.0
20260901164438 16 225 9.7 11.3 0.00 0.13 0.13 88 1008.0
20260901162437 17 242 9.7 11.3 0.00 0.13 0.13 86 1008.0
20260901160436 17 225 9.7 11.3 0.00 0.13 0.13 82 1007.9
20260901154107 17 278 9.7 11.3 0.00 0.13 0.13 77 1007.7
20260901144436 17 269 8.0 12.9 0.00 0.13 0.13 76 1007.9
20260901140435 17 269 14.5 17.7 0.00 0.13 0.13 85 1008.0
20260901134435 18 264 14.5 17.7 0.00 0.13 0.13 86 1008.0
20260901132436 17 230 12.9 19.3 0.00 0.13 0.13 91 1008.2
20260901130434 17 225 14.5 19.3 0.00 0.13 0.13 90 1008.3
20260901120435 17 217 12.9 17.7 0.10 0.13 0.13 96 1008.1
20260901114435 17 222 14.5 17.7 0.10 0.13 0.13 96 1008.1
20260901112434 17 222 17.7 20.9 0.10 0.13 0.13 96 1008.1
20260901110435 17 215 17.7 22.5 0.10 0.13 0.13 96 1008.1
20260901104434 16 226 19.3 24.1 0.05 0.05 0.05 95 1008.2
20260901102435 16 225 22.5 25.7 0.05 0.05 0.05 94 1008.2
20260901100434 16 210 22.5 37.0 0.05 0.05 0.05 95 1008.1
20260901094436 17 213 19.3 24.1 0.00 0.00 0.00 90 1008.1
20260901092435 18 202 19.3 22.5 0.00 0.00 0.00 87 1007.9
20260901090434 18 202 17.7 22.5 0.00 0.00 0.00 88 1007.8
20260901084434 18 207 14.5 19.3 0.00 0.00 0.00 89 1007.7
20260901082434 18 208 17.7 24.1 0.00 0.00 0.00 86 1007.6
20260901080435 18 219 20.9 25.7 0.00 0.00 0.00 87 1007.5
20260901074433 18 221 20.9 25.7 0.00 0.00 0.00 89 1007.3
20260901072435 17 216 19.3 22.5 0.00 0.00 0.00 92 1007.3
20260901070433 18 203 19.3 24.1 0.00 0.00 0.00 91 1007.1
20260901064434 17 201 19.3 24.1 0.00 0.00 0.00 94 1006.9
20260901062433 17 209 17.7 22.5 0.00 0.00 0.00 94 1006.8